| time (UTC) | temp F | wind direction | speed MPH | gust MPH | rain 1hr in | rain 24hr in | rain mn in | humidity % | barometer mb |
| 20260506044536 | 55 | 75 | 0.0 | 4.0 | 0.00 | 0.00 | 0.00 | 81 | 1018.3 |
| 20260506043026 | 55 | 56 | 0.0 | 2.0 | 0.00 | 0.00 | 0.00 | 80 | 1018.0 |
| 20260506041522 | 56 | 42 | 2.0 | 5.0 | 0.00 | 0.00 | 0.00 | 79 | 1018.0 |
| 20260506040023 | 56 | 58 | 1.0 | 4.0 | 0.00 | 0.00 | 0.00 | 78 | 1017.8 |
| 20260506034504 | 57 | 59 | 1.0 | 5.0 | 0.00 | 0.00 | 0.00 | 77 | 1017.5 |
| 20260506033007 | 57 | 1 | 0.0 | 3.0 | 0.00 | 0.00 | 0.00 | 76 | 1017.2 |
| 20260506031515 | 57 | 1 | 1.0 | 5.0 | 0.00 | 0.00 | 0.00 | 75 | 1016.9 |
| 20260506030019 | 58 | 318 | 1.0 | 6.0 | 0.00 | 0.00 | 0.00 | 74 | 1016.7 |
| 20260506024517 | 59 | 245 | 2.0 | 6.0 | 0.00 | 0.00 | 0.00 | 73 | 1016.6 |
| 20260506023008 | 59 | 265 | 3.0 | 9.0 | 0.00 | 0.00 | 0.00 | 73 | 1016.5 |
| 20260506021504 | 59 | 337 | 1.0 | 11.0 | 0.00 | 0.00 | 0.00 | 73 | 1016.6 |
| 20260506020008 | 60 | 347 | 5.0 | 11.0 | 0.00 | 0.00 | 0.00 | 73 | 1016.6 |
| 20260506014506 | 60 | 339 | 2.0 | 8.0 | 0.00 | 0.00 | 0.00 | 72 | 1016.7 |
| 20260506013008 | 61 | 321 | 2.0 | 7.0 | 0.00 | 0.00 | 0.00 | 71 | 1016.6 |
| 20260506011508 | 61 | 290 | 2.0 | 7.0 | 0.00 | 0.00 | 0.00 | 70 | 1016.6 |
| 20260506010007 | 62 | 1 | 3.0 | 8.0 | 0.00 | 0.00 | 0.00 | 69 | 1016.6 |
| 20260506004519 | 62 | 331 | 3.0 | 7.0 | 0.00 | 0.00 | 0.00 | 69 | 1016.5 |
| 20260506003008 | 62 | 11 | 3.0 | 8.0 | 0.00 | 0.00 | 0.00 | 68 | 1016.5 |
| 20260506001509 | 62 | 313 | 4.0 | 7.0 | 0.00 | 0.00 | 0.00 | 68 | 1016.4 |
| 20260506000010 | 62 | 344 | 4.0 | 7.0 | 0.00 | 0.00 | 0.00 | 67 | 1016.2 |
| 20260505234508 | 62 | 330 | 4.0 | 9.0 | 0.00 | 0.00 | 0.00 | 67 | 1016.3 |
| 20260505233009 | 62 | 354 | 2.0 | 9.0 | 0.00 | 0.00 | 0.00 | 67 | 1016.2 |
| 20260505231522 | 63 | 330 | 3.0 | 8.0 | 0.00 | 0.00 | 0.00 | 66 | 1016.2 |
| 20260505230008 | 63 | 23 | 1.0 | 5.0 | 0.00 | 0.00 | 0.00 | 64 | 1016.2 |
| 20260505224517 | 63 | 303 | 2.0 | 5.0 | 0.00 | 0.00 | 0.00 | 64 | 1016.4 |
| 20260505223009 | 63 | 325 | 2.0 | 6.0 | 0.00 | 0.00 | 0.00 | 65 | 1016.7 |
| 20260505221512 | 62 | 1 | 5.0 | 9.0 | 0.00 | 0.00 | 0.00 | 64 | 1016.7 |
| 20260505220011 | 62 | 224 | 3.0 | 8.0 | 0.00 | 0.00 | 0.00 | 65 | 1016.7 |
| 20260505214513 | 62 | 346 | 4.0 | 9.0 | 0.00 | 0.00 | 0.00 | 66 | 1016.7 |
| 20260505213011 | 62 | 293 | 2.0 | 10.0 | 0.00 | 0.00 | 0.00 | 65 | 1016.8 |
| 20260505211512 | 62 | 360 | 2.0 | 9.0 | 0.00 | 0.00 | 0.00 | 66 | 1016.8 |
| 20260505210007 | 61 | 350 | 3.0 | 10.0 | 0.00 | 0.00 | 0.00 | 67 | 1016.9 |
| 20260505204514 | 61 | 316 | 3.0 | 9.0 | 0.00 | 0.00 | 0.00 | 67 | 1016.9 |
| 20260505203023 | 61 | 307 | 4.0 | 8.0 | 0.00 | 0.00 | 0.00 | 66 | 1017.0 |
| 20260505201511 | 61 | 354 | 4.0 | 8.0 | 0.00 | 0.00 | 0.00 | 64 | 1016.8 |
| 20260505200016 | 62 | 320 | 3.0 | 6.0 | 0.00 | 0.00 | 0.00 | 63 | 1016.9 |
| 20260505194511 | 62 | 307 | 2.0 | 6.0 | 0.00 | 0.00 | 0.00 | 63 | 1017.0 |
| 20260505193014 | 62 | 341 | 3.0 | 5.0 | 0.00 | 0.00 | 0.00 | 64 | 1017.0 |
| 20260505191516 | 62 | 236 | 1.0 | 5.0 | 0.00 | 0.00 | 0.00 | 64 | 1017.0 |
| 20260505190028 | 62 | 230 | 1.0 | 6.0 | 0.00 | 0.00 | 0.00 | 64 | 1017.0 |
| 20260505184526 | 61 | 162 | 2.0 | 6.0 | 0.00 | 0.00 | 0.00 | 67 | 1016.9 |
| 20260505183010 | 59 | 241 | 1.0 | 4.0 | 0.00 | 0.00 | 0.00 | 72 | 1017.0 |
| 20260505181514 | 59 | 244 | 1.0 | 5.0 | 0.00 | 0.00 | 0.00 | 74 | 1017.0 |
| 20260505180021 | 58 | 271 | 1.0 | 3.0 | 0.00 | 0.00 | 0.00 | 73 | 1016.9 |
| 20260505174518 | 57 | 15 | 3.0 | 7.0 | 0.00 | 0.00 | 0.00 | 72 | 1016.8 |
| 20260505173016 | 57 | 18 | 2.0 | 6.0 | 0.00 | 0.00 | 0.00 | 71 | 1016.6 |
| 20260505171524 | 57 | 19 | 2.0 | 5.0 | 0.00 | 0.00 | 0.00 | 70 | 1016.5 |
| 20260505170019 | 58 | 4 | 2.0 | 4.0 | 0.00 | 0.00 | 0.00 | 70 | 1016.5 |
| 20260505164523 | 58 | 37 | 1.0 | 5.0 | 0.00 | 0.00 | 0.00 | 69 | 1016.5 |
| 20260505163017 | 58 | 33 | 1.0 | 4.0 | 0.00 | 0.00 | 0.00 | 68 | 1016.4 |
| 20260505161524 | 58 | 161 | 0.0 | 3.0 | 0.00 | 0.00 | 0.00 | 67 | 1016.3 |
| 20260505153024 | 56 | 15 | 0.0 | 4.0 | 0.00 | 0.00 | 0.00 | 71 | 1016.3 |
| 20260505151528 | 55 | 309 | 1.0 | 4.0 | 0.00 | 0.00 | 0.00 | 72 | 1016.2 |
| 20260505124512 | 54 | 56 | 2.0 | 4.0 | 0.00 | 0.00 | 0.00 | 73 | 1015.4 |
| 20260505123018 | 54 | 19 | 2.0 | 5.0 | 0.00 | 0.00 | 0.00 | 74 | 1015.4 |